This is the latest recevied weather packets stored in our database for station/object W0CHP-13. If no packets are shown the sender has not sent any weather packets the latest 10 day(s).
| Time | Temp. | Humidity | Pressure | Rain* | Wind** | Luminosity | Snow |
|---|---|---|---|---|---|---|---|
| 1777465815 | 7.78° C | 53% | 1014.8 hPa | 0 mm | - | 39 W/m² | - |
| 1777465217 | 7.22° C | 54% | 1014.9 hPa | 0 mm | - | 33 W/m² | - |
| 1777464615 | 6.67° C | 53% | 1014.8 hPa | 0 mm | - | 35 W/m² | - |
| 1777464018 | 6.67° C | 53% | 1014.6 hPa | 0 mm | - | 28 W/m² | - |
| 1777463416 | 6.67° C | 53% | 1014.8 hPa | 0 mm | - | 20 W/m² | - |
| 1777462818 | 6.67° C | 53% | 1014.5 hPa | 0 mm | - | 15 W/m² | - |
| 1777462216 | 6.67° C | 53% | 1014.5 hPa | 0 mm | - | 11 W/m² | - |
| 1777461619 | 6.67° C | 52% | 1014.4 hPa | 0 mm | - | 8 W/m² | - |
| 1777461017 | 7.22° C | 51% | 1014.4 hPa | 0 mm | - | 5 W/m² | - |
| 1777460415 | 7.22° C | 51% | 1014.2 hPa | 0 mm | - | 0 W/m² | - |
| 1777459817 | 7.22° C | 51% | 1014.4 hPa | 0 mm | - | 0 W/m² | - |
| 1777459215 | 7.22° C | 50% | 1014.4 hPa | 0 mm | - | 0 W/m² | - |
| 1777458618 | 7.78° C | 51% | 1014.6 hPa | 0 mm | - | 0 W/m² | - |
| 1777458016 | 7.78° C | 50% | 1014.2 hPa | 0 mm | - | 0 W/m² | - |
| 1777457419 | 7.78° C | 50% | 1014.4 hPa | 0 mm | - | 0 W/m² | - |
| 1777456817 | 7.78° C | 50% | 1014.4 hPa | 0 mm | - | 0 W/m² | - |
| 1777456215 | 7.78° C | 50% | 1014.4 hPa | 0 mm | - | 0 W/m² | - |
| 1777455617 | 7.78° C | 48% | 1014.8 hPa | 0 mm | - | 0 W/m² | - |
| 1777455016 | 8.33° C | 48% | 1014.5 hPa | 0 mm | - | 0 W/m² | - |
| 1777454418 | 8.33° C | 47% | 1014.6 hPa | 0 mm | - | 0 W/m² | - |
| 1777453816 | 8.33° C | 47% | 1014.6 hPa | 0 mm | - | 0 W/m² | - |
| 1777453218 | 8.33° C | 47% | 1014.4 hPa | 0 mm | - | 0 W/m² | - |
| 1777452616 | 8.33° C | 47% | 1014.6 hPa | 0 mm | - | 0 W/m² | - |
| 1777452015 | 8.89° C | 49% | 1014.2 hPa | 0 mm | - | 0 W/m² | - |
| 1777451417 | 8.89° C | 49% | 1014.2 hPa | 0 mm | - | 0 W/m² | - |
* Rain latest hour (hover to see other rain measurements)
** Current wind speed in m/s (hover to see current wind gust speed)